Orbital Elements at Epoch 2459200.5 (2020-Dec-17.0) TDB
Reference: JPL 22 (heliocentric ecliptic J2000)
Element | Value | Uncertainty (1-sigma) | Units |
e | .1600082242098325 | 3.672e-08 | |
a | 3.206933697901299 | 2.0984e-08 | au |
q | 2.69379793174144 | 1.22e-07 | au |
i | 2.483141668469465 | 4.2204e-06 | deg |
node | 80.07517933000194 | 0.00012797 | deg |
peri | 350.3261192184397 | 0.00012945 | deg |
M | 31.93394751021264 | 1.8217e-05 | deg |
tp | 2459014.426937767699 (2020-Jun-13.92693777) | 0.0001058 | TDB |
period | 2097.651797736748 5.74 | 2.0589e-05 5.637e-08 | d yr |
n | .1716204759953108 | 1.6845e-09 | deg/d |
Q | 3.720069464061157 | 2.4342e-08 | au |
|
| | Orbit Determination Parameters
Additional Information
|